Location: Sternwarte_Laufen
(47.9344°N, 12.9346°E)
Time: 18:14:54
(UTC+02:00)

ISS - Visible Passes

Search period start: 23 June 2021 00:00
Search period end: 03 July 2021 00:00
Orbit: 417 x 422 km, 51.6° (Epoch: 22 June)

Date Brightness Start Highest point End Pass type
(mag) Time Alt. Az. Time Alt. Az. Time Alt. Az.
27 Jun -1.2 04:15:38 10° SSE 04:16:44 11° SE 04:17:50 10° ESE visible
29 Jun -2.3 04:15:23 10° SSW 04:18:16 26° SE 04:21:10 10° E visible
30 Jun -1.7 03:29:33 14° SSE 03:31:00 18° SE 03:33:20 10° E visible
01 Jul -1.3 02:43:47 11° SE 02:43:47 11° SE 02:44:55 10° ESE visible
01 Jul -3.5 04:16:44 10° SW 04:20:00 59° SSE 04:23:20 10° ENE visible
02 Jul -3.1 03:30:56 22° SSW 03:32:37 40° SSE 03:35:49 10° ENE visible
